Location: Be?chatów
(51.3665°N, 19.3745°E)
Time: 22:26:19
(UTC+00:00)

CZ-2D R/B - Pass Details

Date: 19 May 2025
Orbit: 790 x 841 km, 98.8° (Epoch: 16 June)

Event Time Altitude Azimuth Distance (km) Brightness Sun altitude
Rises 23:48:15 0° 26° (NNE) 3,405 7.0 -17.0°
Reaches altitude 10° 23:51:21 10° 44° (NE) 2,469 5.6 -16.9°
Maximum altitude 23:55:12 19° 89° (E) 1,896 4.2 -16.7°
Drops below altitude 10° 23:59:01 10° 134° (SE) 2,457 4.4 -16.5°
Enters shadow 00:00:23 - 143° (SE) 2,844 4.6 -16.4°
